Rochester, NY

9:02 PM EST on December 13, 2019 (GMT -0500)
Greater Rochester International

Weather History for KROC - May, 2019

Change the Weather History Date:

Tuesday, May 7, 2019

  Actual Average Record
Temperature  
Mean Temperature 53 °F 54 °F  
Max Temperature 62 °F 65 °F 88 °F (1930)
Min Temperature 44 °F 44 °F 26 °F (1970)
Degree Days  
Heating Degree Days 12 11  
Month to date heating degree days 78 86  
Since 1 July heating degree days 6202 6389  
Cooling Degree Days 0 0  
Month to date cooling degree days 0 0  
Year to date cooling degree days 0 4  
Growing Degree Days 2 (Base 50)    
Moisture  
Dew Point 45 °F    
Average Humidity 71    
Maximum Humidity 93    
Minimum Humidity 48    
Precipitation  
Precipitation 0.18 in 0.08 in 1.19 in (1880)
Month to date precipitation 0.98 0.63  
Year to date precipitation 10.91 10.22  
Snow  
Snow 0.00 in 0.00 in 10.70 in (1989)
Month to date snowfall 0.0 0.2  
Since 1 July snowfall 97.1 99.3  
Snow Depth 0.00 in    
Sea Level Pressure  
Sea Level Pressure 30.17 in    
Wind  
Wind Speed 6 mph (WNW)    
Max Wind Speed 16 mph    
Max Gust Speed 20 mph    
Visibility 10 miles    
Events Rain    
T = Trace of Precipitation, MM = Missing Value Source: NWS Daily Summary

Daily Weather History Graph

Daily Weather History Graph

Search for Another Location

Airport or City:

Astronomy

May. 07, 2019 Rise Set
Actual Time 5:56 AM EDT 8:18 PM EDT
Civil Twilight 5:24 AM EDT 8:50 PM EDT
Nautical Twilight 4:45 AM EDT 9:30 PM EDT
Astronomical Twilight 4:01 AM EDT 10:14 PM EDT
Moon 7:59 AM EDT (5/7) 11:19 PM EDT (5/7)
Length of Visible Light 15h 25m
Length of Day
14h 21m
Waxing Crescent, 8% of the Moon is Illuminated
May 7
Waxing Crescent
May 11
First Quarter
May 18
Full
May 26
Last Quarter
Jun 3
New

Hourly Weather History & Observations

Time (EDT) Temp. Dew Point Humidity Pressure Visibility Wind Dir Wind Speed Gust Speed Precip Events Conditions
12:54 AM 63.0 °F 43.0 °F 48% 30.06 in 10.0 mi WSW 4.6 mph - N/A   Overcast
1:54 AM 61.0 °F 46.0 °F 58% 30.06 in 10.0 mi Calm Calm - 0.00 in   Overcast
2:54 AM 57.9 °F 46.9 °F 67% 30.05 in 10.0 mi Calm Calm - N/A   Mostly Cloudy
3:54 AM 57.9 °F 48.0 °F 70% 30.06 in 10.0 mi NNW 6.9 mph - N/A   Overcast
4:54 AM 55.0 °F 48.0 °F 77% 30.07 in 10.0 mi North 6.9 mph - 0.00 in Rain Light Rain
5:54 AM 53.1 °F 48.0 °F 83% 30.08 in 10.0 mi NNW 6.9 mph - 0.01 in   Overcast
6:14 AM 53.1 °F 46.9 °F 80% 30.08 in 10.0 mi NW 8.1 mph - N/A   Overcast
6:54 AM 53.1 °F 46.0 °F 77% 30.11 in 10.0 mi NNW 5.8 mph - N/A   Overcast
7:54 AM 52.0 °F 46.0 °F 80% 30.15 in 10.0 mi NNW 6.9 mph - N/A   Overcast
8:03 AM 51.1 °F 45.0 °F 80% 30.14 in 10.0 mi NNW 10.4 mph - N/A   Overcast
8:22 AM 51.1 °F 46.0 °F 83% 30.15 in 10.0 mi NNW 9.2 mph - 0.00 in Rain Light Rain
8:24 AM 51.1 °F 46.9 °F 86% 30.15 in 10.0 mi NNW 8.1 mph - 0.00 in Rain Light Rain
8:54 AM 50.0 °F 46.0 °F 86% 30.17 in 7.0 mi NNW 9.2 mph - 0.00 in Rain Rain
9:54 AM 48.9 °F 46.0 °F 90% 30.18 in 6.0 mi NNW 6.9 mph - 0.04 in Rain Rain
10:54 AM 48.9 °F 45.0 °F 86% 30.21 in 6.0 mi NNW 5.8 mph - 0.04 in Rain Light Rain
11:31 AM 50.0 °F 46.0 °F 86% 30.19 in 9.0 mi NW 6.9 mph - 0.03 in Rain Light Rain
11:54 AM 51.1 °F 46.0 °F 83% 30.20 in 10.0 mi WNW 8.1 mph - 0.04 in Rain Light Rain
12:54 PM 51.1 °F 46.9 °F 86% 30.21 in 10.0 mi West 4.6 mph - 0.02 in Rain Light Rain
1:33 PM 51.1 °F 46.9 °F 86% 30.21 in 10.0 mi West 9.2 mph - 0.01 in Rain Light Rain
1:54 PM 52.0 °F 46.9 °F 83% 30.22 in 10.0 mi West 6.9 mph - 0.02 in Rain Light Rain
2:54 PM 51.1 °F 43.0 °F 74% 30.23 in 10.0 mi West 8.1 mph - 0.00 in Rain Light Rain
3:54 PM 52.0 °F 45.0 °F 77% 30.23 in 10.0 mi West 8.1 mph - 0.01 in   Overcast
4:54 PM 53.1 °F 45.0 °F 74% 30.23 in 10.0 mi West 10.4 mph - 0.00 in   Mostly Cloudy
5:54 PM 54.0 °F 43.0 °F 66% 30.22 in 10.0 mi West 5.8 mph - N/A   Mostly Cloudy
6:54 PM 55.0 °F 42.1 °F 62% 30.22 in 10.0 mi West 4.6 mph - N/A   Mostly Cloudy
7:54 PM 53.1 °F 42.1 °F 66% 30.23 in 10.0 mi West 4.6 mph - N/A   Mostly Cloudy
8:54 PM 51.1 °F 42.1 °F 71% 30.23 in 10.0 mi West 4.6 mph - N/A   Mostly Cloudy
9:54 PM 48.9 °F 41.0 °F 74% 30.25 in 10.0 mi West 4.6 mph - N/A   Clear
10:54 PM 48.0 °F 41.0 °F 77% 30.26 in 10.0 mi West 5.8 mph - N/A   Scattered Clouds
11:54 PM 46.9 °F 42.1 °F 83% 30.27 in 10.0 mi West 5.8 mph - N/A   Clear